Date String (YYYY-MM-DD hh:mm:ss) UTC,Instrument flags,Ambient pressure (hPa),Sample flow (lpm),Bypass flow (lpm),Sample temperature (°C),Ambient temperature (°C),ASC tube jacket temperature (°C),LED temperature (°C),Box temperature (°C),Sample RH (%),Span deviation,Mass concentration (μg/m³),Mass concentration (μg/m³),Mass concentration (μg/m³)
DateTimeUTC,F1_M11,P_M11,Q1_M11,Q2_M11,T1_M11,T2_M11,T3_M11,T4_M11,T5_M11,U1_M11,ZSPAN_M11,X0_M11,X2_M11,X1_M11
2022-09-09 21:00:00,,0827.2,4.99,0.00,31.1,29.9,00.0,40.0,32.9,21.6,0001.6,0021.42,0013.51,0012.42
2022-09-09 21:01:00,,0827.2,5.00,0.00,31.1,29.9,00.0,40.0,32.9,21.6,0001.8,0020.53,0013.49,0012.43
2022-09-09 21:02:00,,0827.2,5.01,0.00,31.1,29.8,00.0,40.0,32.9,21.6,0001.7,0020.25,0013.53,0012.47
2022-09-09 21:03:00,,0827.2,4.99,0.00,31.1,29.9,00.0,40.0,32.9,21.6,0002.0,0019.83,0013.54,0012.51
2022-09-09 21:04:00,,0827.2,5.01,0.00,31.1,29.9,00.0,40.0,32.9,21.5,0001.8,0019.26,0013.59,0012.55
2022-09-09 21:05:00,,0827.2,5.01,0.00,31.1,29.9,00.0,40.0,32.9,21.5,0001.9,0019.01,0013.63,0012.61
2022-09-09 21:06:00,,0827.2,4.99,0.00,31.1,29.9,00.0,40.0,32.9,21.5,0001.4,0018.86,0013.65,0012.63
2022-09-09 21:07:00,,0827.2,5.01,0.00,31.1,29.9,00.0,40.0,32.9,21.5,0001.4,0019.06,0013.71,0012.70
2022-09-09 21:08:00,,0827.2,4.99,0.00,31.1,29.9,00.0,40.0,32.9,21.5,0001.5,0019.79,0013.84,0012.77
2022-09-09 21:09:00,,0827.3,5.01,0.00,31.2,29.9,00.0,40.0,32.9,21.4,0001.5,0020.53,0014.00,0012.86
2022-09-09 21:10:00,,0827.2,5.01,0.00,31.2,29.9,00.0,40.0,32.9,21.6,0001.8,0020.75,0014.05,0012.93
2022-09-09 21:11:00,,0827.2,4.99,0.00,31.2,29.9,00.0,40.0,33.0,21.7,0001.8,0020.43,0013.97,0012.95
2022-09-09 21:12:00,,0827.2,5.00,0.00,31.2,29.9,00.0,40.0,33.0,21.7,0001.3,0020.65,0014.01,0012.96
2022-09-09 21:13:00,,0827.4,4.99,0.00,31.2,29.9,00.0,40.0,33.0,21.8,0001.6,0020.54,0013.94,0012.95
2022-09-09 21:14:00,,0827.3,5.00,0.00,31.2,29.9,00.0,40.0,33.0,21.8,0001.6,0020.83,0013.90,0012.92
2022-09-09 21:15:00,,0827.4,5.01,0.00,31.2,29.9,00.0,40.0,33.0,21.8,0001.8,0021.25,0013.84,0012.90
2022-09-09 21:16:00,,0827.4,4.99,0.00,31.2,29.9,00.0,40.0,33.0,22.0,0001.7,0021.61,0013.83,0012.86
2022-09-09 21:17:00,,0827.4,5.00,0.00,31.2,29.9,00.0,40.0,33.0,22.1,0001.7,0021.39,0013.83,0012.87
2022-09-09 21:18:00,,0827.4,5.00,0.00,31.2,29.9,00.0,40.0,33.0,22.1,0001.8,0021.67,0013.84,0012.87
2022-09-09 21:19:00,,0827.4,5.00,0.00,31.2,29.8,00.0,40.0,33.0,22.0,0001.8,0021.15,0013.80,0012.87
2022-09-09 21:20:00,,0827.4,4.99,0.00,31.2,29.9,00.0,40.0,33.0,22.1,0001.9,0021.09,0013.77,0012.83
2022-09-09 21:21:00,,0827.4,5.01,0.00,31.2,29.9,00.0,40.0,33.0,22.1,0001.9,0020.81,0013.71,0012.78
2022-09-09 21:22:00,,0827.4,5.00,0.00,31.2,29.9,00.0,40.0,33.0,22.1,0001.5,0020.93,0013.77,0012.80
2022-09-09 21:23:00,,0827.4,4.98,0.00,31.2,29.9,00.0,40.0,33.0,22.2,0001.6,0020.71,0013.80,0012.82
2022-09-09 21:24:00,,0827.5,5.00,0.00,31.2,29.9,00.0,40.0,33.0,22.2,0001.4,0021.15,0013.88,0012.87
2022-09-09 21:25:00,,0827.5,5.01,0.00,31.2,29.9,00.0,40.0,33.0,22.2,0001.1,0021.22,0013.95,0012.91
2022-09-09 21:26:00,,0827.5,5.00,0.00,31.2,29.9,00.0,40.0,33.0,22.2,0000.9,0020.59,0013.95,0012.91
2022-09-09 21:27:00,,0827.5,4.99,0.00,31.2,29.9,00.0,40.1,33.0,22.2,0000.5,0020.50,0013.97,0012.93
2022-09-09 21:28:00,,0827.4,5.01,0.00,31.2,30.0,00.0,40.1,33.0,22.2,0000.8,0020.21,0013.92,0012.92
2022-09-09 21:29:00,,0827.4,5.00,0.00,31.2,29.9,00.0,40.1,33.0,22.2,0000.9,0020.50,0013.92,0012.90
2022-09-09 21:30:00,,0827.4,4.99,0.00,31.2,29.9,00.0,40.1,33.0,22.2,0001.0,0020.49,0013.88,0012.82
2022-09-09 21:31:00,,0827.4,5.01,0.00,31.2,29.9,00.0,40.1,33.0,22.1,0000.8,0019.84,0013.81,0012.80
2022-09-09 21:32:00,,0827.4,5.01,0.00,31.2,29.9,00.0,40.1,33.0,22.2,0000.6,0020.10,0013.78,0012.80
2022-09-09 21:33:00,,0827.4,5.00,0.00,31.2,29.9,00.0,40.1,33.0,22.2,0000.7,0020.86,0013.79,0012.81
2022-09-09 21:34:00,,0827.5,4.99,0.00,31.2,29.9,00.0,40.1,33.0,22.3,0000.6,0021.34,0013.76,0012.79
2022-09-09 21:35:00,,0827.6,5.01,0.00,31.2,29.9,00.0,40.1,33.0,22.3,0000.7,0021.38,0013.73,0012.77
2022-09-09 21:36:00,,0827.5,5.01,0.00,31.2,29.9,00.0,40.1,33.0,22.3,0000.7,0021.36,0013.77,0012.76
2022-09-09 21:37:00,,0827.5,4.99,0.00,31.2,29.9,00.0,40.1,33.0,22.2,0000.6,0021.67,0013.83,0012.81
2022-09-09 21:38:00,,0827.6,5.01,0.00,31.2,29.9,00.0,40.1,33.0,22.2,0000.8,0021.50,0013.83,0012.84
2022-09-09 21:39:00,,0827.6,5.00,0.00,31.2,29.9,00.0,40.1,33.0,22.2,0000.7,0021.78,0013.88,0012.86
2022-09-09 21:40:00,,0827.5,5.00,0.00,31.2,29.9,00.0,40.1,33.0,22.2,0000.6,0021.45,0013.94,0012.90
2022-09-09 21:41:00,,0827.5,5.01,0.00,31.2,29.9,00.0,40.1,33.0,22.3,0000.4,0021.31,0013.97,0012.97
2022-09-09 21:42:00,,0827.5,4.99,0.00,31.2,29.9,00.0,40.1,33.0,22.4,0000.4,0021.88,0013.94,0012.97
2022-09-09 21:43:00,,0827.5,5.01,0.00,31.2,29.9,00.0,40.1,33.0,22.4,0000.5,0021.92,0013.97,0012.96
2022-09-09 21:44:00,,0827.4,5.01,0.00,31.2,29.9,00.0,40.1,33.0,22.4,0000.7,0021.19,0013.96,0012.94
2022-09-09 21:45:00,,0827.4,4.98,0.00,31.2,29.9,00.0,40.1,33.0,22.5,0000.9,0021.38,0013.96,0012.93
2022-09-09 21:46:00,,0827.4,5.01,0.00,31.2,29.8,00.0,40.1,33.0,22.6,0000.8,0021.95,0013.97,0012.89
2022-09-09 21:47:00,,0827.3,5.01,0.00,31.2,29.8,00.0,40.1,33.0,22.7,0000.8,0022.01,0013.88,0012.85
2022-09-09 21:48:00,,0827.4,4.98,0.00,31.2,29.9,00.0,40.1,33.0,22.7,0001.3,0021.98,0013.75,0012.77
2022-09-09 21:49:00,,0827.4,5.01,0.00,31.2,29.8,00.0,40.1,33.0,22.7,0001.7,0021.82,0013.71,0012.74
2022-09-09 21:50:00,,0827.4,5.01,0.00,31.2,29.9,00.0,40.1,33.0,22.8,0001.6,0021.37,0013.66,0012.69
2022-09-09 21:51:00,,0827.4,5.00,0.00,31.2,29.8,00.0,40.1,33.0,22.8,0001.8,0021.28,0013.56,0012.62
2022-09-09 21:52:00,,0827.4,4.99,0.00,31.2,29.8,00.0,40.1,33.0,22.9,0001.5,0021.88,0013.48,0012.55
2022-09-09 21:53:00,,0827.4,5.01,0.00,31.2,29.8,00.0,40.1,33.0,22.8,0001.5,0022.01,0013.48,0012.51
2022-09-09 21:54:00,,0827.5,4.98,0.00,31.2,29.9,00.0,40.1,33.0,22.7,0001.5,0022.48,0013.43,0012.48
2022-09-09 21:55:00,,0827.5,5.01,0.00,31.2,29.9,00.0,40.1,33.0,22.7,0001.5,0023.20,0013.40,0012.46
2022-09-09 21:56:00,,0827.5,5.01,0.00,31.2,29.9,00.0,40.1,33.0,22.5,0001.4,0023.23,0013.34,0012.45
2022-09-09 21:57:00,,0827.5,4.99,0.00,31.2,29.9,00.0,40.1,33.0,22.6,0001.5,0023.21,0013.31,0012.44
2022-09-09 21:58:00,,0827.5,5.01,0.00,31.2,29.9,00.0,40.1,33.0,22.6,0001.4,0023.14,0013.35,0012.45
2022-09-09 21:59:00,,0827.5,4.99,0.00,31.2,29.9,00.0,40.1,33.0,22.5,0001.2,0023.42,0013.40,0012.47
